SCP
0 0 0 0 0 0 0 0 0 0 0 0 0 0 0 0 0 0 0 0 0 0 0 0 0 0 0 0 0 0 0 0 0 0 0 0 0 -0 -0 -0 0 0 0
0 0 0 0 0 0 0 0 0 0 0 0 0 0 0 0 0 0 0 0 0 0 0 0 0 0 0 0 0 0 0 0 0 0 -0 0 0 0 0 0 0 0 0
0 0 0 0 0 0 0 0 0 0 0 0 0 0 0 0 0 0 0 0 0 0 0 0 0 0 0 0 0 0 0 0 0 0 0 0 0 0 0 0 0 0 0
0 0 0 0 0 0 0 0 0 0 0 0 0 0 0 0 0 0 0 0 0 0 0 0 0 0 0 0 0 0 0 0 0 0 0 0 0 0 0 0 0 0 0
0 0 0 0 0 0 0 0 0 0 0 0 0 0 0 -0 -0 -0 0 0 0 0 0 0 0 0 0 0 0 0 0 0 0 0 0 0 0 0 0 0 0 0 0
0 0 0 0 0 0 0 0 0 0 0 0 0 -0 -0 -0 0 0 0 0 0 0 0 0 0 0 0 0 0 0 0 0 0 0 0 0 0 0 0 0 0 0 -0
0 0 0 0 0 0 0 0 0 0 0 0 0 0 0 0 0 0 0 0 0 0 0 0 0 0 0 0 0 0 0 0 0 0 0 0 0 0 0 0 0 0 -0
0 0 0 0 0 0 0 0 0 0 0 0 0 0 0 0 0 0 0 0 0 0 0 0 0 0 0 0 0 0 0 0 0 0 0 0 0 0 0 0 0 -0 0
0 0 0 0 0 0 0 0 0 0 0 0 0 0 0 0 0 0 0 0 0 0 0 0 0 0 0 0 0 0 0 0 0 0 0 0 0 0 0 0 0 -0 -0
0 0 0 0 0 0 0 0 0 0 0 0 0 0 0 0 0 0 0 0 0 0 0 0 0 0 0 0 0 0 0 0 0 0 0 0 0 0 0 0 0 0 0
0 0 0 0 0 0 0 0 0 0 0 0 0 0 0 0 0 0 0 0 0 0 0 0 0 0 0 0 0 0 0 0 -0 -0 -0 -0 -0 0 0 0 0 0 0
0 0 0 0 0 0 0 0 0 0 0 0 0 0 0 0 0 0 0 0 0 0 0 0 0 0 0 0 0 0 0 0 -0 -0 -0 -0 -0 -0 0 0 0 0 0
0 0 0 0 0 0 0 0 0 0 0 0 0 0 0 0 0 0 0 0 0 0 0 0 0 0 0 0 0 0 0 -0 -0 -0 -0 -0 0 0 0 0 0 0 0
0 0 0 0 0 0 0 0 0 0 0 0 0 0 0 0 0 0 0 0 0 0 0 0 0 0 0 0 0 0 0 -0 -0 -0 0 0 0 0 0 0 0 0 0
0 0 0 0 0 0 0 0 0 0 0 0 0 0 0 0 0 0 0 0 0 0 0 0 0 0 0 0 0 0 0 0 0 0 0 0 0 0 0 0 0 0 0
0 0 0 0 0 0 0 0 0 0 0 0 0 0 0 0 0 0 0 0 0 0 0 0 0 0 0 0 0 0 0 0 0 0 0 0 0 0 0 0 0 0 0
0 0 0 0 0 0 0 0 0 0 0 0 0 0 0 0 0 0 0 0 0 0 0 0 0 0 0 0 0 0 0 0 0 0 0 0 0 0 0 0 0 0 0
0 0 0 0 0 0 0 0 0 0 0 0 0 0 0 0 0 0 0 0 0 0 0 0 0 0 0 0 0 0 0 0 0 0 0 0 0 0 0 0 0 0 0
0 0 0 0 0 0 0 0 0 0 0 0 0 0 0 0 0 0 0 0 0 0 0 0 0 0 0 0 0 0 0 0 0 0 0 0 0 0 0 0 0 0 0
0 0 0 0 0 0 0 0 0 0 0 0 0 0 0 0 0 0 0 0 0 0 0 0 0 0 0 0 0 0 0 0 0 0 0 0 0 0 0 0 0 0 0
0 0 0 0 0 0 0 0 0 0 0 0 0 0 0 0 0 0 0 0 0 0 0 0 0 0 0 0 0 0 0 0 0 0 0 0 0 -0 -0 0 0 0 0
0 0 0 0 0 0 0 0 0 0 0 0 0 0 0 0 0 0 0 0 0 0 0 0 0 0 0 0 0 0 0 0 0 0 0 0 -0 -0 -0 -0 0 -0 0
0 0 0 0 0 0 0 0 0 0 0 0 0 0 0 0 0 0 0 0 0 0 0 0 0 0 0 0 0 0 0 0 0 0 0 0 -0 -0 0 0 0 0 0
0 0 0 0 0 0 0 0 0 0 0 0 0 0 0 0 0 0 0 0 0 0 0 0 0 0 0 0 0 0 0 0 0 0 0 0 0 0 0 0 0 0 0
0 0 0 0 0 0 0 0 0 0 0 0 0 0 0 0 0 0 0 0 0 0 0 0 0 0 0 0 0 0 0 0 0 0 -0 -0 0 0 0 0 0 0 0
0 0 0 0 0 0 0 0 0 0 0 0 0 0 0 0 0 0 0 0 0 0 0 0 0 0 0 0 0 0 0 0 0 0 -0 -0 -0 0 0 0 0 0 0
Wind_Speed_500mb
28 30 32 35 36 34 35 34 36 40 34 31 27 27 20 18 12 6 5 6 5 7 13 20 25 25 27 28 24 22 25 28 35 43 45 45 47 46 48 54 49 43 42
32 37 41 44 46 47 48 47 46 44 42 40 40 38 34 31 25 22 15 13 5 3 7 12 18 21 19 23 26 28 27 31 36 37 44 34 48 41 32 28 26 29 30
37 39 43 48 52 57 58 58 57 53 49 45 41 38 35 34 28 25 22 21 17 14 10 7 6 7 10 16 21 26 29 30 33 33 26 18 17 46 41 46 51 50 52
37 39 42 47 50 53 48 44 42 41 40 36 32 28 27 26 28 24 24 22 21 20 20 19 17 16 17 14 16 18 21 23 25 22 21 23 29 25 32 36 56 56 50
36 41 42 43 42 39 38 35 34 33 31 27 24 23 25 29 28 26 22 24 23 21 21 22 23 23 25 25 25 26 29 29 27 28 30 29 30 30 36 59 61 73 63
40 41 42 39 34 30 30 28 25 25 22 20 24 26 29 28 23 22 19 18 18 19 20 21 22 24 24 26 28 28 28 28 27 27 29 32 33 35 37 49 69 79 76
45 43 43 38 33 25 21 19 17 16 14 12 15 17 18 16 14 13 13 12 15 19 21 22 24 26 28 28 29 31 32 34 35 36 33 32 35 37 41 45 51 66 79
49 45 42 36 30 25 21 13 8 7 11 13 13 15 14 11 10 11 13 16 19 21 23 25 27 28 29 32 34 36 38 40 41 43 43 44 42 43 46 51 55 66 67
58 51 44 36 29 23 19 15 10 11 14 13 11 10 9 8 9 9 12 17 20 21 24 26 28 30 33 35 39 42 45 47 51 52 55 56 54 53 52 52 52 51 45
60 54 46 39 32 27 22 17 16 14 13 12 10 6 4 5 8 11 14 17 20 23 25 26 29 32 37 42 46 50 55 59 62 66 67 65 65 65 63 61 60 59 63
63 57 49 41 34 30 25 22 21 20 20 19 13 6 3 3 8 13 18 21 25 28 31 32 35 39 44 49 54 61 66 70 73 74 76 75 72 71 70 69 69 71 69
64 60 53 46 42 38 32 29 28 28 25 22 16 11 9 9 13 18 22 26 31 34 36 38 41 46 50 56 62 67 72 76 79 81 80 81 82 83 79 77 76 76 75
58 56 55 53 54 49 42 37 33 33 31 28 22 18 16 16 19 22 26 31 35 40 44 47 49 53 57 63 68 72 75 77 79 81 82 83 84 87 87 84 82 82 79
55 56 56 53 57 56 50 40 38 40 39 34 29 25 23 24 25 26 31 36 40 45 47 49 53 56 61 66 70 73 77 79 79 82 85 87 85 85 84 84 84 74 68
52 48 44 52 54 55 53 47 44 44 42 40 37 33 32 31 30 31 34 38 43 48 50 52 56 58 63 67 71 75 78 81 84 85 87 86 84 81 76 66 69 64 68
47 37 36 33 36 45 55 51 46 46 48 46 41 42 43 40 37 36 37 41 47 53 55 57 59 62 65 67 69 73 78 82 85 88 86 83 79 73 70 62 57 55 62
37 29 27 28 35 44 47 50 43 43 48 50 53 55 52 49 44 40 41 47 54 58 59 61 62 63 64 67 70 74 78 80 81 81 80 77 71 67 65 61 55 53 52
29 28 30 35 39 39 39 38 41 45 51 57 60 60 57 53 48 43 46 52 58 60 60 62 62 63 64 68 69 73 77 79 77 74 70 67 67 66 59 59 62 60 62
24 28 32 36 32 31 33 38 42 46 48 49 56 58 57 55 52 49 50 53 59 63 62 62 62 64 64 65 68 73 75 75 73 67 61 62 68 64 56 64 72 75 76
22 28 33 35 33 29 31 38 43 45 49 49 49 52 56 58 57 54 53 54 62 65 64 64 62 62 64 64 66 68 68 69 68 69 72 70 58 60 60 64 69 77 80
17 28 38 38 31 28 36 42 44 49 44 46 52 57 60 61 60 57 55 57 62 67 65 66 62 60 61 60 60 60 54 56 63 69 73 72 67 62 66 69 78 86 83
26 37 43 45 34 36 44 50 50 46 46 48 55 61 64 62 61 58 57 59 63 66 66 66 62 59 58 56 55 55 40 45 54 64 72 74 74 66 66 68 70 65 65
33 37 53 48 35 39 47 55 57 55 56 54 57 61 62 61 60 60 59 60 63 65 65 64 63 61 58 53 49 46 48 44 51 59 59 62 72 70 68 62 56 56 54
29 31 49 59 49 47 52 56 61 61 61 58 58 60 59 59 59 59 59 62 61 60 63 61 60 61 60 54 48 49 54 54 58 71 69 62 63 57 54 52 49 48 48
30 35 39 56 64 52 54 55 58 60 59 56 57 57 56 56 56 57 59 63 58 57 58 56 56 58 59 52 43 43 46 49 57 59 58 60 57 54 51 49 47 47 48
35 39 42 44 49 51 48 50 53 54 56 58 57 55 55 56 58 60 61 55 54 53 55 51 49 50 51 43 38 40 41 48 53 51 54 52 53 54 55 55 53 50 50
Wind_Direction_500mb
94 98 99 99 99 103 102 101 97 93 94 98 103 113 115 102 111 70 47 40 346 311 300 300 308 311 303 300 303 314 319 310 305 303 298 300 305 300 293 292 293 286 283
116 110 107 107 106 103 101 101 98 99 99 97 92 92 92 94 86 81 75 78 64 4 308 292 291 291 304 300 302 302 306 310 314 317 319 312 302 300 289 279 291 286 293
130 118 113 107 104 101 100 100 97 93 89 85 86 89 92 94 95 89 80 67 57 49 42 31 358 328 309 305 311 309 303 303 301 308 315 319 295 303 299 291 289 285 287
141 132 123 117 110 104 97 91 91 90 86 82 83 86 86 81 80 73 71 68 62 54 50 44 35 28 23 11 2 354 344 331 318 312 303 300 298 312 311 296 296 298 291
157 143 132 125 115 106 102 91 81 79 82 81 76 63 60 78 80 75 63 53 44 41 36 32 29 22 21 20 16 12 10 5 355 346 333 314 305 305 308 308 306 302 300
166 152 141 133 124 116 106 94 73 66 76 77 75 66 65 71 68 60 48 45 40 36 32 28 23 20 17 15 13 11 5 5 1 357 352 347 341 325 311 303 305 308 310
176 163 153 147 138 129 111 100 88 71 79 85 90 83 81 77 63 61 53 52 42 30 24 19 16 11 10 6 2 359 356 353 350 345 340 335 328 324 319 314 312 309 310
181 173 166 158 154 155 141 138 120 121 132 137 124 109 98 85 69 51 39 23 17 13 9 2 360 357 354 353 351 348 345 342 338 333 328 323 318 313 312 310 311 310 304
185 180 174 172 176 171 164 171 180 175 163 154 132 114 92 66 48 36 18 6 1 356 355 350 349 347 345 344 342 340 337 335 331 327 321 317 313 306 301 296 296 297 300
190 187 184 185 189 191 190 193 196 196 189 185 171 158 114 59 21 9 352 348 342 340 335 333 331 332 333 333 332 330 330 328 327 323 319 315 310 305 300 296 290 285 284
195 195 195 199 200 205 208 209 209 215 212 201 198 200 259 327 332 337 337 334 333 331 328 327 328 329 329 328 328 328 328 327 324 322 319 316 312 307 302 298 294 289 285
199 203 205 209 214 219 221 223 217 221 216 217 217 229 262 294 317 324 325 326 326 326 324 322 322 324 325 326 325 325 325 325 323 321 319 316 313 309 305 301 296 293 291
206 209 213 218 226 227 226 226 223 224 224 223 227 244 262 279 296 310 319 322 323 324 323 321 321 323 324 325 324 325 325 323 321 318 315 312 309 306 305 304 301 298 293
207 213 217 226 235 233 230 232 228 225 225 227 236 249 261 277 291 307 317 319 319 319 317 317 319 320 322 322 323 324 323 321 319 315 313 311 309 306 303 299 296 295 293
206 210 227 237 238 236 236 235 230 227 228 232 241 251 262 273 284 299 307 313 314 315 314 315 316 318 320 322 323 323 322 320 317 315 314 312 310 307 305 301 298 293 290
208 236 236 235 240 243 242 237 234 231 231 237 248 255 262 269 276 286 296 307 313 313 312 314 316 318 321 322 322 322 321 319 317 316 316 314 313 311 308 303 296 291 288
240 238 233 243 247 249 245 235 234 233 237 244 248 254 260 265 267 278 294 302 307 309 309 312 313 315 319 322 323 322 319 318 317 317 317 317 316 317 314 308 301 297 291
230 232 247 246 243 243 234 230 230 236 242 247 252 256 260 263 265 277 290 295 303 305 305 308 311 314 321 322 322 320 320 318 318 318 320 320 321 321 311 311 308 307 303
238 247 242 237 229 225 226 229 236 242 249 258 262 261 262 262 262 272 281 292 302 302 301 306 310 314 318 320 321 322 319 317 318 323 324 325 323 323 310 307 302 299 297
237 241 231 227 224 220 231 242 248 251 265 268 271 267 261 260 261 268 278 290 301 299 300 305 309 313 316 320 321 319 317 318 322 326 326 325 311 308 305 301 300 298 300
262 246 229 232 224 246 252 252 256 263 264 266 266 264 261 259 262 268 277 292 299 297 298 302 305 310 313 316 318 319 320 321 324 316 316 318 317 309 306 300 294 292 297
261 249 237 230 243 256 258 257 263 265 262 266 266 261 258 259 264 271 278 290 293 295 295 298 302 308 311 315 318 321 320 315 311 316 317 321 320 308 304 300 297 294 293
259 256 241 229 249 260 261 258 263 265 262 265 266 261 259 261 267 274 280 288 292 293 293 298 302 306 308 313 318 324 325 322 317 312 311 307 308 309 308 308 304 302 296
274 270 246 234 249 261 267 268 265 265 260 260 262 260 259 263 269 275 281 288 290 289 291 294 298 302 306 317 324 325 331 328 321 309 315 322 320 318 314 309 306 305 305
269 265 260 246 250 269 270 266 266 265 261 261 263 262 263 267 272 277 282 287 288 285 288 291 294 301 308 315 318 316 317 318 306 310 324 327 328 332 333 330 326 320 317
267 257 251 256 263 263 260 262 264 264 260 262 266 266 268 272 276 279 283 283 282 283 287 291 291 292 294 300 305 308 308 301 306 320 325 331 340 345 346 345 341 337 332
Wind_Speed_850mb
28 30 32 35 36 34 35 34 36 40 34 31 27 27 20 18 12 6 5 6 5 7 13 20 25 25 27 28 24 22 25 28 35 43 45 45 47 46 48 54 49 43 42
32 37 41 44 46 47 48 47 46 44 42 40 40 38 34 31 25 22 15 13 5 3 7 12 18 21 19 23 26 28 27 31 36 37 44 34 48 41 32 28 26 29 30
37 39 43 48 52 57 58 58 57 53 49 45 41 38 35 34 28 25 22 21 17 14 10 7 6 7 10 16 21 26 29 30 33 33 26 18 17 46 41 46 51 50 52
37 39 42 47 50 53 48 44 42 41 40 36 32 28 27 26 28 24 24 22 21 20 20 19 17 16 17 14 16 18 21 23 25 22 21 23 29 25 32 36 56 56 50
36 41 42 43 42 39 38 35 34 33 31 27 24 23 25 29 28 26 22 24 23 21 21 22 23 23 25 25 25 26 29 29 27 28 30 29 30 30 36 59 61 73 63
40 41 42 39 34 30 30 28 25 25 22 20 24 26 29 28 23 22 19 18 18 19 20 21 22 24 24 26 28 28 28 28 27 27 29 32 33 35 37 49 69 79 76
45 43 43 38 33 25 21 19 17 16 14 12 15 17 18 16 14 13 13 12 15 19 21 22 24 26 28 28 29 31 32 34 35 36 33 32 35 37 41 45 51 66 79
49 45 42 36 30 25 21 13 8 7 11 13 13 15 14 11 10 11 13 16 19 21 23 25 27 28 29 32 34 36 38 40 41 43 43 44 42 43 46 51 55 66 67
58 51 44 36 29 23 19 15 10 11 14 13 11 10 9 8 9 9 12 17 20 21 24 26 28 30 33 35 39 42 45 47 51 52 55 56 54 53 52 52 52 51 45
60 54 46 39 32 27 22 17 16 14 13 12 10 6 4 5 8 11 14 17 20 23 25 26 29 32 37 42 46 50 55 59 62 66 67 65 65 65 63 61 60 59 63
63 57 49 41 34 30 25 22 21 20 20 19 13 6 3 3 8 13 18 21 25 28 31 32 35 39 44 49 54 61 66 70 73 74 76 75 72 71 70 69 69 71 69
64 60 53 46 42 38 32 29 28 28 25 22 16 11 9 9 13 18 22 26 31 34 36 38 41 46 50 56 62 67 72 76 79 81 80 81 82 83 79 77 76 76 75
58 56 55 53 54 49 42 37 33 33 31 28 22 18 16 16 19 22 26 31 35 40 44 47 49 53 57 63 68 72 75 77 79 81 82 83 84 87 87 84 82 82 79
55 56 56 53 57 56 50 40 38 40 39 34 29 25 23 24 25 26 31 36 40 45 47 49 53 56 61 66 70 73 77 79 79 82 85 87 85 85 84 84 84 74 68
52 48 44 52 54 55 53 47 44 44 42 40 37 33 32 31 30 31 34 38 43 48 50 52 56 58 63 67 71 75 78 81 84 85 87 86 84 81 76 66 69 64 68
47 37 36 33 36 45 55 51 46 46 48 46 41 42 43 40 37 36 37 41 47 53 55 57 59 62 65 67 69 73 78 82 85 88 86 83 79 73 70 62 57 55 62
37 29 27 28 35 44 47 50 43 43 48 50 53 55 52 49 44 40 41 47 54 58 59 61 62 63 64 67 70 74 78 80 81 81 80 77 71 67 65 61 55 53 52
29 28 30 35 39 39 39 38 41 45 51 57 60 60 57 53 48 43 46 52 58 60 60 62 62 63 64 68 69 73 77 79 77 74 70 67 67 66 59 59 62 60 62
24 28 32 36 32 31 33 38 42 46 48 49 56 58 57 55 52 49 50 53 59 63 62 62 62 64 64 65 68 73 75 75 73 67 61 62 68 64 56 64 72 75 76
22 28 33 35 33 29 31 38 43 45 49 49 49 52 56 58 57 54 53 54 62 65 64 64 62 62 64 64 66 68 68 69 68 69 72 70 58 60 60 64 69 77 80
17 28 38 38 31 28 36 42 44 49 44 46 52 57 60 61 60 57 55 57 62 67 65 66 62 60 61 60 60 60 54 56 63 69 73 72 67 62 66 69 78 86 83
26 37 43 45 34 36 44 50 50 46 46 48 55 61 64 62 61 58 57 59 63 66 66 66 62 59 58 56 55 55 40 45 54 64 72 74 74 66 66 68 70 65 65
33 37 53 48 35 39 47 55 57 55 56 54 57 61 62 61 60 60 59 60 63 65 65 64 63 61 58 53 49 46 48 44 51 59 59 62 72 70 68 62 56 56 54
29 31 49 59 49 47 52 56 61 61 61 58 58 60 59 59 59 59 59 62 61 60 63 61 60 61 60 54 48 49 54 54 58 71 69 62 63 57 54 52 49 48 48
30 35 39 56 64 52 54 55 58 60 59 56 57 57 56 56 56 57 59 63 58 57 58 56 56 58 59 52 43 43 46 49 57 59 58 60 57 54 51 49 47 47 48
35 39 42 44 49 51 48 50 53 54 56 58 57 55 55 56 58 60 61 55 54 53 55 51 49 50 51 43 38 40 41 48 53 51 54 52 53 54 55 55 53 50 50
Wind_Direction_850mb
94 98 99 99 99 103 102 101 97 93 94 98 103 113 115 102 111 70 47 40 346 311 300 300 308 311 303 300 303 314 319 310 305 303 298 300 305 300 293 292 293 286 283
116 110 107 107 106 103 101 101 98 99 99 97 92 92 92 94 86 81 75 78 64 4 308 292 291 291 304 300 302 302 306 310 314 317 319 312 302 300 289 279 291 286 293
130 118 113 107 104 101 100 100 97 93 89 85 86 89 92 94 95 89 80 67 57 49 42 31 358 328 309 305 311 309 303 303 301 308 315 319 295 303 299 291 289 285 287
141 132 123 117 110 104 97 91 91 90 86 82 83 86 86 81 80 73 71 68 62 54 50 44 35 28 23 11 2 354 344 331 318 312 303 300 298 312 311 296 296 298 291
157 143 132 125 115 106 102 91 81 79 82 81 76 63 60 78 80 75 63 53 44 41 36 32 29 22 21 20 16 12 10 5 355 346 333 314 305 305 308 308 306 302 300
166 152 141 133 124 116 106 94 73 66 76 77 75 66 65 71 68 60 48 45 40 36 32 28 23 20 17 15 13 11 5 5 1 357 352 347 341 325 311 303 305 308 310
176 163 153 147 138 129 111 100 88 71 79 85 90 83 81 77 63 61 53 52 42 30 24 19 16 11 10 6 2 359 356 353 350 345 340 335 328 324 319 314 312 309 310
181 173 166 158 154 155 141 138 120 121 132 137 124 109 98 85 69 51 39 23 17 13 9 2 360 357 354 353 351 348 345 342 338 333 328 323 318 313 312 310 311 310 304
185 180 174 172 176 171 164 171 180 175 163 154 132 114 92 66 48 36 18 6 1 356 355 350 349 347 345 344 342 340 337 335 331 327 321 317 313 306 301 296 296 297 300
190 187 184 185 189 191 190 193 196 196 189 185 171 158 114 59 21 9 352 348 342 340 335 333 331 332 333 333 332 330 330 328 327 323 319 315 310 305 300 296 290 285 284
195 195 195 199 200 205 208 209 209 215 212 201 198 200 259 327 332 337 337 334 333 331 328 327 328 329 329 328 328 328 328 327 324 322 319 316 312 307 302 298 294 289 285
199 203 205 209 214 219 221 223 217 221 216 217 217 229 262 294 317 324 325 326 326 326 324 322 322 324 325 326 325 325 325 325 323 321 319 316 313 309 305 301 296 293 291
206 209 213 218 226 227 226 226 223 224 224 223 227 244 262 279 296 310 319 322 323 324 323 321 321 323 324 325 324 325 325 323 321 318 315 312 309 306 305 304 301 298 293
207 213 217 226 235 233 230 232 228 225 225 227 236 249 261 277 291 307 317 319 319 319 317 317 319 320 322 322 323 324 323 321 319 315 313 311 309 306 303 299 296 295 293
206 210 227 237 238 236 236 235 230 227 228 232 241 251 262 273 284 299 307 313 314 315 314 315 316 318 320 322 323 323 322 320 317 315 314 312 310 307 305 301 298 293 290
208 236 236 235 240 243 242 237 234 231 231 237 248 255 262 269 276 286 296 307 313 313 312 314 316 318 321 322 322 322 321 319 317 316 316 314 313 311 308 303 296 291 288
240 238 233 243 247 249 245 235 234 233 237 244 248 254 260 265 267 278 294 302 307 309 309 312 313 315 319 322 323 322 319 318 317 317 317 317 316 317 314 308 301 297 291
230 232 247 246 243 243 234 230 230 236 242 247 252 256 260 263 265 277 290 295 303 305 305 308 311 314 321 322 322 320 320 318 318 318 320 320 321 321 311 311 308 307 303
238 247 242 237 229 225 226 229 236 242 249 258 262 261 262 262 262 272 281 292 302 302 301 306 310 314 318 320 321 322 319 317 318 323 324 325 323 323 310 307 302 299 297
237 241 231 227 224 220 231 242 248 251 265 268 271 267 261 260 261 268 278 290 301 299 300 305 309 313 316 320 321 319 317 318 322 326 326 325 311 308 305 301 300 298 300
262 246 229 232 224 246 252 252 256 263 264 266 266 264 261 259 262 268 277 292 299 297 298 302 305 310 313 316 318 319 320 321 324 316 316 318 317 309 306 300 294 292 297
261 249 237 230 243 256 258 257 263 265 262 266 266 261 258 259 264 271 278 290 293 295 295 298 302 308 311 315 318 321 320 315 311 316 317 321 320 308 304 300 297 294 293
259 256 241 229 249 260 261 258 263 265 262 265 266 261 259 261 267 274 280 288 292 293 293 298 302 306 308 313 318 324 325 322 317 312 311 307 308 309 308 308 304 302 296
274 270 246 234 249 261 267 268 265 265 260 260 262 260 259 263 269 275 281 288 290 289 291 294 298 302 306 317 324 325 331 328 321 309 315 322 320 318 314 309 306 305 305
269 265 260 246 250 269 270 266 266 265 261 261 263 262 263 267 272 277 282 287 288 285 288 291 294 301 308 315 318 316 317 318 306 310 324 327 328 332 333 330 326 320 317
267 257 251 256 263 263 260 262 264 264 260 262 266 266 268 272 276 279 283 283 282 283 287 291 291 292 294 300 305 308 308 301 306 320 325 331 340 345 346 345 341 337 332